www.pogodaiklimat.ru

Погода и климат >> Архив погоды >> Италия >> Казале-Монферрато


ПОГОДА в Казале-Монферрато

  • Прогноз погоды в Казале-Монферрато
  • Монитор погоды в Казале-Монферрато

АРХИВ ПОГОДЫ в Казале-Монферрато

Время (UTC), дата Ветер
(напр.,м/с)
 
Видим.   Явления Облачность Т
(С)
Тd
(С)
f
(%)
Тe
(С)
Тes
(С)
Комфортность P
(гПа)
Po
(гПа)
Тmin
(С)
Tmax
(С)
R
(мм)
R24
(мм)
S
(см)
07 17.04 штиль 0 н/о н/о +11.7 +10.6 93 +11 +11 1021.3 1007.4
08 17.04 СЗ 2 н/о н/о +13.6 +10.2 80 +13 +13 1021.5 1007.6
09 17.04 СВ 1 н/о н/о +15.7 +9.3 66 +16 +16 1021.5 1007.7
10 17.04 Ю 1 н/о н/о +18.0 +10.8 63 +19 +19 1021.4 1007.7
11 17.04 Ю 1 н/о н/о +19.3 +12.0 63 +22 +22 комфорт 1020.7 1007.1
12 17.04 Ю 2 н/о н/о +19.6 +9.7 53 +21 +21 комфорт 1020.2 1006.6
13 17.04 СЗ 1 н/о н/о +20.8 +11.1 54 +24 +24 комфорт 1019.9 1006.4
14 17.04 СЗ 1 н/о н/о +21.6 +9.4 46 +23 +23 комфорт 1019.6 1006.1
15 17.04 ЮЗ 1 н/о н/о +21.6 +8.1 42 +23 +23 комфорт 1019.1 1005.6
16 17.04 Ю 1 н/о н/о +21.0 +6.8 40 +23 +23 комфорт 1018.9 1005.4
17 17.04 Ю 2 н/о н/о +19.7 +9.2 51 +21 +21 комфорт 1018.9 1005.3
18 17.04 З 1 н/о н/о +18.6 +8.8 53 +21 +21 комфорт 1019.1 1005.5 +22.1
19 17.04 З 2 н/о н/о +14.8 +8.5 66 +15 +15 1019.9 1006.1
20 17.04 З 1 н/о н/о +12.6 +8.0 74 +13 +13 1020.9 1007.0
21 17.04 З 2 н/о н/о +11.6 +7.7 77 +11 +11 1021.3 1007.3
22 17.04 З 1 н/о н/о +9.9 +6.9 82 +9 +9 1021.6 1007.6
23 17.04 З 1 н/о н/о +9.5 +6.5 82 +10 +10 1022.2 1008.1
00 18.04 З 1 н/о н/о +9.4 +7.3 87 +10 +10 1022.4 1008.3
01 18.04 З 1 н/о н/о +8.4 +6.8 90 +8 +8 1022.4 1008.3
02 18.04 З 1 н/о н/о +9.1 +7.5 90 +8 +8 1022.7 1008.6
03 18.04 С 1 н/о н/о +8.3 +6.7 90 +7 +7 1022.9 1008.8
04 18.04 С 2 н/о н/о +10.0 +8.1 88 +8 +8 1022.8 1008.8
05 18.04 СЗ 2 н/о н/о +10.5 +7.9 84 +10 +10 1023.1 1009.1
06 18.04 СЗ 3 н/о н/о +10.9 +8.3 84 +9 +9 1023.8 1009.8 +7.9 305
07 18.04 С 3 н/о н/о +12.3 +9.3 82 +11 +11 1024.4 1010.4
08 18.04 С 3 н/о н/о +14.1 +10.5 79 +13 +13 1024.5 1010.6
09 18.04 С 2 н/о н/о +16.5 +11.8 74 +17 +17 1024.6 1010.8
10 18.04 В 3 н/о н/о +17.8 +10.8 64 +18 +18 1024.7 1011.0
11 18.04 В 4 н/о н/о +19.2 +11.9 63 +20 +20 1024.3 1010.7
12 18.04 СВ 4 н/о н/о +19.7 +11.4 59 +21 +21 комфорт 1023.8 1010.2
13 18.04 В 3 н/о н/о +20.6 +10.1 51 +23 +23 комфорт 1023.5 1009.9
14 18.04 В 3 н/о н/о +21.1 +9.6 48 +22 +22 комфорт 1023.1 1009.6
15 18.04 В 3 н/о н/о +21.3 +8.2 43 +22 +22 комфорт 1022.9 1009.4
16 18.04 В 4 н/о н/о +19.6 +7.9 47 +21 +21 комфорт 1023.2 1009.6
17 18.04 В 3 н/о н/о +18.3 +8.2 52 +19 +19 1023.5 1009.8
18 18.04 В 3 н/о н/о +16.7 +7.8 56 +16 +16 1024.2 1010.4 +21.5
19 18.04 СВ 2 н/о н/о +15.2 +7.7 61 +15 +15 1024.9 1011.1
20 18.04 СВ 2 н/о н/о +15.0 +8.2 64 +15 +15 1025.7 1011.8
21 18.04 СВ 2 н/о н/о +14.4 +8.3 67 +14 +14 1026.3 1012.4
22 18.04 С 2 н/о н/о +14.4 +8.3 67 +14 +14 1027.0 1013.1
23 18.04 С 3 н/о н/о +13.8 +8.2 69 +13 +13 1027.4 1013.5
00 19.04 С 3 н/о н/о +13.2 +7.6 69 +12 +12 1027.7 1013.7
01 19.04 С 3 н/о н/о +12.8 +8.2 74 +12 +12 1027.7 1013.7
02 19.04 С 3 н/о н/о +12.5 +7.9 74 +11 +11 1027.9 1013.9
03 19.04 С 2 н/о н/о +11.6 +7.3 75 +11 +11 1028.5 1014.4
04 19.04 С 2 н/о н/о +11.6 +7.5 76 +11 +11 1028.6 1014.5
05 19.04 С 2 н/о н/о +11.2 +7.1 76 +10 +10 1029.1 1015.0
06 19.04 С 2 н/о н/о +12.1 +7.6 74 +12 +12 1029.9 1015.9 +11.0 603
07 19.04 С 2 н/о н/о +13.6 +8.4 71 +13 +13 1030.3 1016.3
08 19.04 СВ 3 н/о н/о +15.7 +9.1 65 +15 +15 1030.5 1016.6
09 19.04 СВ 3 н/о н/о +17.2 +9.3 60 +17 +17 1030.6 1016.8
10 19.04 СВ 3 н/о н/о +18.4 +10.2 59 +19 +19 1030.4 1016.6
11 19.04 В 4 н/о н/о +19.6 +10.8 57 +21 +21 комфорт 1030.0 1016.3
12 19.04 В 3 н/о н/о +20.0 +8.6 48 +21 +21 комфорт 1029.5 1015.8
13 19.04 В 3 н/о н/о +20.2 +8.5 47 +22 +22 комфорт 1029.1 1015.4
14 19.04 С 1 н/о н/о +21.2 +7.0 40 +22 +22 комфорт 1028.3 1014.7
15 19.04 ЮВ 2 н/о н/о +21.2 +8.7 45 +22 +22 комфорт 1027.9 1014.3
16 19.04 В 3 н/о н/о +20.2 +7.5 44 +22 +22 комфорт 1027.7 1014.1
17 19.04 В 2 н/о н/о +19.8 +9.9 53 +22 +22 комфорт 1027.6 1013.9
18 19.04 В 2 н/о н/о +18.0 +7.6 51 +19 +19 1027.8 1014.0 +21.9
19 19.04 З 1 н/о н/о +15.4 +7.1 58 +17 +17 1028.2 1014.3
20 19.04 З 1 н/о н/о +12.4 +7.0 70 +12 +12 1028.6 1014.6
21 19.04 З 1 н/о н/о +11.4 +7.3 76 +11 +11 1028.8 1014.7
22 19.04 З 1 н/о н/о +10.7 +6.8 77 +10 +10 1028.7 1014.6
23 19.04 З 1 н/о н/о +10.2 +6.7 79 +10 +10 1028.6 1014.5
00 20.04 штиль 0 н/о н/о +9.4 +6.6 83 +9 +9 1028.7 1014.5
01 20.04 ЮЗ 1 н/о н/о +8.9 +6.3 84 +9 +9 1028.3 1014.1
02 20.04 З 1 н/о н/о +7.7 +5.5 86 +7 +7 1028.3 1014.0
03 20.04 З 1 н/о н/о +7.8 +6.2 90 +8 +8 1028.1 1013.9
04 20.04 Ю 1 н/о н/о +6.7 +5.0 89 +6 +6 1028.3 1014.0
05 20.04 СЗ 2 н/о н/о +7.5 +6.1 91 +6 +6 1028.4 1014.2
06 20.04 З 1 н/о н/о +10.7 +9.3 91 +10 +10 1028.6 1014.5 +6.3 1
07 20.04 С 2 н/о н/о +13.7 +9.1 74 +14 +14 1028.7 1014.7
08 20.04 С 2 н/о н/о +15.5 +9.8 69 +16 +16 1028.7 1014.8
09 20.04 СЗ 1 н/о н/о +17.2 +10.3 64 +18 +18 1028.4 1014.6
10 20.04 СВ 2 н/о н/о +18.7 +11.0 61 +20 +20 1027.9 1014.2
11 20.04 СВ 2 н/о н/о +20.2 +12.4 61 +23 +23 комфорт 1027.4 1013.8
12 20.04 С 2 н/о н/о +21.1 +8.6 45 +22 +22 комфорт 1026.8 1013.2
13 20.04 В 2 н/о н/о +22.3 +11.0 49 +24 +24 комфорт 1026.0 1012.5
14 20.04 В 4 н/о н/о +21.8 +7.2 39 +23 +23 комфорт 1025.2 1011.7
15 20.04 СВ 4 н/о н/о +22.1 +7.8 40 +23 +23 комфорт 1024.4 1010.9
16 20.04 В 4 н/о н/о +20.9 +7.8 43 +22 +22 комфорт 1023.8 1010.2
17 20.04 В 4 н/о н/о +19.7 +6.4 42 +21 +21 комфорт 1023.8 1010.2
18 20.04 В 1 н/о н/о +17.9 +6.0 46 +19 +19 1023.6 1009.9 +23.3
19 20.04 З 1 н/о н/о +16.3 +6.9 54 +18 +18 1024.1 1010.3
20 20.04 З 1 н/о н/о +14.5 +7.2 62 +15 +15 1024.4 1010.5
21 20.04 З 2 н/о н/о +13.6 +7.5 67 +13 +13 1024.5 1010.6
22 20.04 СЗ 2 н/о н/о +13.1 +7.7 70 +13 +13 1024.4 1010.5
23 20.04 СЗ 3 н/о н/о +16.1 +9.7 66 +16 +16 1024.2 1010.4
00 21.04 С 3 н/о н/о +15.8 +9.9 68 +15 +15 1024.1 1010.3
01 21.04 С 3 н/о н/о +14.8 +9.3 70 +14 +14 1023.7 1009.9
02 21.04 С 3 н/о н/о +14.6 +9.1 70 +14 +14 1023.2 1009.4
03 21.04 С 2 н/о н/о +14.1 +8.2 68 +14 +14 1022.9 1009.0
04 21.04 С 2 н/о н/о +14.2 +8.1 67 +14 +14 1022.7 1008.8
05 21.04 СЗ 2 н/о н/о +12.9 +7.3 69 +13 +13 1022.4 1008.5
06 21.04 Ю 1 н/о н/о +11.8 +7.7 76 +13 +13 1022.7 1008.7 +11.4 1
07 21.04 СЗ 2 н/о н/о +14.4 +9.6 73 +14 +14 1022.3 1008.5
08 21.04 С 2 н/о н/о +15.7 +9.5 67 +16 +16 1022.2 1008.4
09 21.04 С 2 н/о н/о +17.6 +9.4 59 +18 +18 1022.0 1008.3
10 21.04 СВ 2 н/о н/о +18.3 +7.9 51 +19 +19 1021.5 1007.9
11 21.04 С 1 н/о н/о +18.5 +9.0 54 +20 +20 1020.9 1007.3
12 21.04 СЗ 1 н/о н/о +19.7 +9.2 51 +22 +22 комфорт 1020.0 1006.4
13 21.04 СВ 2 н/о н/о +20.8 +7.7 43 +23 +23 комфорт 1019.3 1005.8
14 21.04 СВ 2 н/о н/о +20.2 +8.5 47 +22 +22 комфорт 1018.5 1005.0
15 21.04 СВ 3 н/о н/о +20.3 +9.2 49 +22 +22 комфорт 1017.8 1004.3
16 21.04 СВ 3 н/о н/о +19.9 +8.5 48 +21 +21 комфорт 1017.4 1003.9
17 21.04 В 3 н/о н/о +18.8 +7.2 47 +20 +20 1017.1 1003.5
18 21.04 СВ 2 н/о н/о +17.9 +5.4 44 +19 +19 1016.9 1003.3 +21.4
19 21.04 З 1 н/о н/о +15.4 +6.1 54 +17 +17 1017.4 1003.7
20 21.04 С 2 н/о н/о +16.9 +7.7 55 +17 +17 1017.3 1003.7
21 21.04 С 2 н/о н/о +15.8 +7.5 58 +16 +16 1017.5 1003.8
22 21.04 С 2 н/о н/о +15.9 +7.6 58 +16 +16 1017.7 1004.0
23 21.04 С 3 н/о н/о +14.8 +7.0 60 +14 +14 1017.8 1004.0
00 22.04 С 2 н/о н/о +14.8 +6.0 56 +15 +15 1018.1 1004.3
01 22.04 СВ 3 н/о н/о +14.1 +5.9 58 +13 +13 1017.1 1003.3
02 22.04 С 1 н/о н/о +12.9 +5.2 59 +14 +14 1017.1 1003.3
03 22.04 С 2 н/о н/о +12.7 +7.1 69 +12 +12 1016.6 1002.8
04 22.04 С 2 н/о н/о +12.7 +7.1 69 +12 +12 1016.1 1002.3
05 22.04 С 2 н/о н/о +12.7 +7.3 70 +12 +12 1015.9 1002.1
06 22.04 С 2 н/о н/о +12.8 +8.4 75 +12 +12 1015.3 1001.5 +12.4 104
07 22.04 С 3 н/о н/о +13.5 +8.3 71 +13 +13 1014.9 1001.1
08 22.04 СВ 3 н/о н/о +15.3 +11.5 78 +15 +15 1014.8 1001.1
09 22.04 СВ 5 н/о н/о +16.3 +11.4 73 +15 +15 1014.3 1000.7
10 22.04 СВ 6 н/о н/о +17.1 +9.0 59 +16 +16 1013.6 1000.0
11 22.04 СВ 5 н/о н/о +18.5 +8.4 52 +18 +18 1012.7 999.2
12 22.04 СВ 6 н/о н/о +18.4 +10.4 60 +18 +18 1011.8 998.3
13 22.04 В 5 н/о н/о +17.7 +11.0 65 +17 +17 1011.8 998.3
14 22.04 СВ 4 н/о н/о +17.3 +10.4 64 +17 +17 1010.7 997.2
15 22.04 С 4 н/о н/о +17.4 +10.2 63 +17 +17 1009.7 996.2
16 22.04 С 4 н/о н/о +17.2 +10.0 63 +17 +17 1009.4 995.9
17 22.04 СВ 4 н/о н/о +16.9 +9.8 63 +16 +16 1008.7 995.2
18 22.04 СВ 4 н/о н/о +16.5 +10.1 66 +16 +16 1008.6 995.0 +19.0
19 22.04 СВ 3 н/о н/о +15.8 +10.5 71 +15 +15 1008.7 995.1
20 22.04 В 3 н/о н/о +15.1 +11.8 81 +14 +14 1008.8 995.2
21 22.04 СВ 4 н/о н/о +14.8 +11.5 81 +14 +14 1008.5 994.9
22 22.04 В 5 н/о н/о +14.2 +11.7 85 +12 +12 1008.5 994.8
23 22.04 СВ 4 н/о н/о +12.5 +11.2 92 +10 +10 1007.9 994.2
00 23.04 СВ 5 н/о н/о +12.3 +11.2 93 +10 +10 1007.3 993.6 10
01 23.04 С 4 н/о н/о +11.9 +10.8 93 +10 +10 1006.4 992.7
02 23.04 СВ 5 н/о н/о +11.4 +10.3 93 +9 +9 1006.0 992.2
03 23.04 С 3 н/о н/о +11.1 +10.0 93 +9 +9 1005.0 991.2
04 23.04 С 3 н/о н/о +11.3 +10.4 94 +10 +10 1004.3 990.6
05 23.04 С 4 н/о н/о +11.0 +9.9 93 +9 +9 1004.1 990.3
06 23.04 С 4 н/о н/о +11.3 +10.4 94 +9 +9 1003.9 990.2 +11.0 33 207
07 23.04 СВ 4 н/о н/о +11.7 +10.8 94 +10 +10 1003.9 990.2
08 23.04 СВ 3 н/о н/о +12.2 +11.3 94 +10 +10 1004.1 990.4
09 23.04 С 3 н/о н/о +12.3 +11.4 94 +11 +11 1004.3 990.6
10 23.04 С 4 н/о н/о +12.1 +11.2 94 +10 +10 1004.4 990.7
11 23.04 С 4 н/о н/о +11.7 +10.8 94 +9 +9 1004.3 990.6
12 23.04 С 3 н/о н/о +12.2 +11.3 94 +11 +11 1004.1 990.4 10
13 23.04 В 4 н/о н/о +12.7 +11.7 94 +11 +11 1004.4 990.7
14 23.04 СВ 4 н/о н/о +12.7 +11.7 94 +11 +11 1004.2 990.5
15 23.04 СВ 3 н/о н/о +12.9 +11.9 94 +12 +12 1004.3 990.6
16 23.04 СВ 1 н/о н/о +13.2 +12.2 94 +13 +13 1004.4 990.7
17 23.04 В 2 н/о н/о +13.3 +12.3 94 +13 +13 1004.6 990.9
18 23.04 В 4 н/о н/о +13.0 +12.0 94 +11 +11 1004.9 991.2 +13.4 17
19 23.04 В 2 н/о н/о +13.0 +12.0 94 +12 +12 1005.3 991.6
20 23.04 В 2 н/о н/о +13.0 +12.0 94 +12 +12 1006.1 992.4
21 23.04 В 3 н/о н/о +13.0 +12.0 94 +12 +12 1006.3 992.6
22 23.04 ЮВ 2 н/о н/о +13.0 +12.0 94 +12 +12 1006.6 992.9
23 23.04 ЮВ 3 н/о н/о +13.0 +12.0 94 +12 +12 1006.9 993.2
00 24.04 ЮЗ 2 н/о н/о +11.6 +10.5 93 +10 +10 1007.5 993.7 2
01 24.04 Ю 2 н/о н/о +11.2 +10.1 93 +10 +10 1007.9 994.1
02 24.04 ЮЗ 2 н/о н/о +11.3 +10.2 93 +10 +10 1008.3 994.5
03 24.04 штиль 0 н/о н/о +11.4 +10.3 93 +11 +11 1008.7 994.9
04 24.04 З 1 н/о н/о +11.6 +10.5 93 +11 +11 1009.4 995.6
05 24.04 З 1 н/о н/о +11.6 +10.5 93 +11 +11 1009.8 996.0
06 24.04 штиль 0 н/о н/о +12.1 +11.2 94 +11 +11 1010.5 996.7 +10.8 2 0
07 24.04 С 1 н/о н/о +13.1 +12.1 94 +13 +13 1010.7 997.0

 

Местоположение метеостанции Казале-Монферрато (Италия): широта 45.13 долгота 8.45 высота над уровнем моря 119 м.

В архиве по умолчанию представлена погода в Казале-Монферрато за последнюю неделю. Архивные данные за месяц целиком и за предыдущие месяцы, начиная с января 2011 года, Вы можете получить, выбрав интересующий диапазон дат из раскрывающегося списка и нажав кнопку "Ввод!".


*Определитесь, кто Вы:
робот инопланетянин человек

Внимание! Время в таблицах - всемирное. Для получения местного времени необходимо прибавить поправку, которая равна 1 ч.

Смотрите также архив погоды в соседних городах и на ближайших метеорологических станциях:

Погода в Новара (Италия) (47 км)
Погода в Турине Брик Делла Крос (Италия) (58 км)
Погода в Аэропорту Мальпенса (Италия) (59 км)
Погода в Турине (Италия) (64 км)
Погода в Турине Венария (Италия) (65 км)
Погода в Милане (Италия) (73 км)
Погода на Пассо-деи-Джиови (Италия) (75 км)
Погода в Генуе (Италия) (85 км)
Погода в Стабио (Швейцария) (88 км)
Погода в Мондови (Италия) (97 км)

Пояснения к столбцам:

Ветер - указаны скорость ветра в м/с - средняя за 10 мин, порывы в срок и между сроками (в фигурных скобках) и направление, откуда дует ветер: С - северный, СВ - северо-восточный, В - восточный, ЮВ - юго-восточный, Ю - южный, ЮЗ - юго-западный, З - западный, СЗ - северо-западный.
Видимость - горизонтальная дальность видимости в метрах или километрах. При видимости от 1 до 10 км при отсутствии осадков обычно наблюдается дымка, при ухудшении видимости до 1 км и менее - туман. В сухую погоду видимость может ухудшаться дымом, пылью или мглою.
Явления - указаны атмосферные явления, наблюдавшиеся в срок или в последний час перед сроком; фигурными скобками обозначены явления, наблюдавшиеся между сроками (за 1-3 часа до срока); квадратными скобками обозначены град или гололедные отложения с указанием их диаметра в мм.
Облачность - указаны через наклонную черту общая и нижняя облачность в баллах и высота нижней границы облаков в метрах; квадратными скобками обозначены формы облаков: Ci - перистые, Cs - перисто-слоистые, Cc - перисто-кучевые, Ac - высококучевые, As - высокослоистые, Sc - слоисто-кучевые, Ns - слоисто-дождевые, Cu - кучевые, Cb - кучево-дождевые. Подробнее классификацию облаков см. в Атласе облаков (PDF).
T - Температура воздуха - температура, измеренная на высоте 2 м над землей.
Td - Температура точки росы - температура, при понижении до которой содержащийся в воздухе водяной пар достигнет насыщения.
f - Относительная влажность воздуха - влажноcть воздуха, измеренная на высоте 2 м над землей.
Te - Эффективная температура - температура, которую ощущает одетый по сезону человек в тени. Характеристика душности погоды. При расчете учитывается влияние влажности воздуха и скорости ветра на теплоощущения человека.
Tes - Эффективная температура на солнце - температура, которую ощущает человек, с поправкой на солнечный нагрев. Характеристика знойности погоды. Зависит от высоты солнца над горизонтом, облачности и скорости ветра. Ночью, в пасмурную погоду, а также при ветре 12 м/с и более поправка равна нулю.
P - Атмосферное давление - приведенное к уровню моря атмосферное давление.
Po - Атмосферное давление - измеренное на уровне метеостанции атмосферное давление.
Tmin - Минимальная температура - минимум температуры воздуха на высоте 2 м над землей.
Tmax - Максимальная температура - максимум температуры воздуха на высоте 2 м над землей.
R - Количество осадков - Количество выпавших осадков за период времени, мм. При наведении курсора мыши на число - период времени, за который выпало указанное количество осадков.
R24 - Количество осадков - Количество выпавших осадков за 24 часа, мм.
S - Снежный покров - Высота снежного покрова, см. При наведении курсора мыши на число - состояние снежного покрова и степень покрытия местности в баллах.